Terminal Aerodrome Forecast
Issued by NWS Blacksburg, VA

Home | Current Version | Previous Version | Text Only | Print | Product List | Glossary On
Versions: 1 2 3 4 5 6 7 8 9 10 11 12 13 14 15 16 17 18 19 20 21 22 23 24 25 26 27 28 29 30 31 32 33 34 35 36 37 38 39 40 41 42 43 44 45 46 47 48 49 50
000
FTUS41 KRNK 242327
TAFBLF
TAF
KBLF 242327Z 2500/2524 19012G24KT P6SM VCSH SCT015 BKN035
      TEMPO 2500/2503 28025G40KT 3SM SHRA OVC010
     FM250300 28012G22KT P6SM OVC025
     FM251000 29015G28KT 6SM -SHRASN OVC008
     FM251800 28010G20KT P6SM BKN025
     FM252200 27007KT P6SM SCT030=

USA.gov is the U.S. government's official web portal to all federal, state and local government web resources and services.